Wind_Speed
1 0 1 1 2 2 3 3 4 4 4 5 5 6 7 7 7 8 9 9 8 8 7 7 8 9 9 10 10 11 11 11 11 10 10 11 11 11 11 11 11 12 12
0 1 1 1 2 2 3 4 4 4 4 4 5 6 7 7 7 7 8 8 8 9 9 9 9 9 10 10 11 11 11 11 11 12 13 13 13 13 13 12 12 13 13
0 0 0 1 1 2 3 3 4 5 5 5 6 6 7 8 8 8 8 9 9 9 10 10 10 10 11 12 12 13 13 13 13 13 14 14 14 14 14 14 14 14 14
1 1 1 2 2 2 3 4 5 5 6 6 7 7 8 8 8 8 9 9 9 9 10 10 10 11 12 12 13 13 14 14 14 14 15 15 15 15 15 15 15 15 15
2 2 2 3 3 3 4 5 5 6 6 7 8 8 8 9 9 9 10 10 10 10 10 11 11 12 12 13 13 13 14 15 15 16 16 16 16 16 16 16 15 16 16
3 3 3 4 5 5 5 6 6 7 7 8 8 9 9 10 10 10 11 11 11 11 12 12 13 13 13 14 14 14 15 16 16 16 16 17 17 17 17 17 16 16 17
3 3 4 4 5 6 7 7 7 8 8 8 9 10 11 12 12 11 11 12 12 12 12 13 13 14 14 15 15 15 15 16 16 17 17 17 18 18 19 18 18 18 18
4 4 5 6 6 7 8 8 8 8 9 9 10 11 12 13 13 13 13 13 13 14 14 14 15 16 16 17 18 18 18 18 18 18 18 18 19 19 19 19 19 19 20
5 5 6 7 7 7 8 9 9 9 10 11 11 12 12 13 14 14 15 15 15 16 16 17 17 18 18 19 19 19 20 20 20 19 20 20 20 21 21 21 20 20 21
6 7 7 7 8 9 10 10 10 10 11 11 12 13 13 14 15 16 16 16 17 18 19 19 19 19 19 19 20 20 20 21 21 21 21 21 21 22 22 22 22 21 22
7 7 7 8 9 10 11 11 12 12 13 13 13 14 15 16 16 17 17 18 19 20 20 20 20 20 20 20 21 21 21 21 21 22 22 22 22 23 23 23 23 23 23
9 8 9 10 11 11 12 13 13 14 15 15 15 16 17 18 18 19 20 19 20 20 21 21 21 21 21 21 21 21 21 22 22 22 22 23 23 24 24 25 24 24 24
11 11 11 12 12 13 13 14 15 15 16 17 17 18 18 19 19 20 21 21 21 21 22 22 22 23 23 23 22 22 22 23 23 22 23 23 24 25 25 25 25 24 25
12 14 14 14 14 15 15 16 16 16 17 18 18 19 20 21 22 22 22 22 22 22 23 23 23 23 24 24 24 24 24 24 25 24 24 24 24 24 25 25 26 25 25
14 15 15 16 16 16 16 17 17 18 18 19 20 20 21 22 23 23 22 21 21 23 23 25 25 24 24 24 25 26 25 26 26 26 25 24 24 25 25 25 25 25 25
16 16 17 17 17 18 18 18 18 18 19 19 21 22 22 22 22 22 21 21 22 23 24 25 26 25 25 25 25 26 26 26 26 25 25 25 25 25 25 25 25 25 25
18 18 18 19 19 19 19 19 20 19 20 21 21 22 23 23 23 23 22 23 23 24 24 25 26 26 26 26 27 27 26 26 26 26 25 25 26 26 27 26 26 25 24
20 20 20 20 20 20 20 21 22 22 22 22 23 24 25 25 24 24 24 24 24 25 25 25 26 26 27 27 26 26 27 27 27 26 25 25 26 26 27 26 26 25 25
21 21 21 21 22 22 22 22 23 24 24 23 24 25 26 26 25 25 25 25 26 26 26 26 25 26 26 26 26 26 27 27 27 27 27 26 26 25 25 26 26 26 26
22 22 23 23 23 24 25 25 25 25 25 25 26 27 28 27 26 26 27 27 27 27 27 27 26 27 27 27 27 27 27 27 27 27 27 27 27 26 26 26 27 26 26
23 24 24 24 24 25 25 25 26 26 26 26 27 28 28 28 27 27 27 28 28 28 28 28 28 28 28 28 29 28 29 28 28 27 27 28 28 28 28 28 27 27 27
26 26 25 25 25 25 26 26 26 26 27 27 27 28 29 29 29 29 29 29 29 29 29 29 29 29 29 29 30 30 30 29 29 29 29 29 29 29 29 29 28 28 28
28 28 28 28 28 27 27 27 27 27 27 27 28 29 29 30 30 30 29 30 30 30 30 30 29 29 30 29 30 31 31 31 30 30 30 29 29 29 29 28 28 28 28
29 29 29 29 29 28 28 28 29 29 29 29 30 30 31 31 31 31 31 31 30 31 31 32 31 31 30 31 31 31 31 30 30 30 30 30 29 29 29 29 28 28 28
30 30 30 30 29 29 29 29 30 31 31 31 32 32 32 32 32 32 32 32 32 32 32 33 32 32 32 32 32 32 31 31 30 30 31 30 29 29 29 29 28 28 28
31 31 31 30 30 30 30 31 31 32 32 32 32 33 32 32 32 32 33 33 33 33 33 33 33 33 33 32 32 32 31 30 30 30 29 30 30 29 29 28 27 28 28
Wind_Direction
169 252 298 260 268 273 275 289 289 290 285 292 292 301 306 304 298 288 288 292 294 290 290 291 286 287 282 280 282 282 280 279 279 282 283 282 280 281 283 279 279 278 276
330 306 291 265 270 282 293 295 295 290 286 290 301 308 308 305 305 299 293 295 293 289 289 288 289 287 283 282 282 280 281 278 281 283 281 284 282 281 285 282 279 279 278
18 22 283 280 280 288 293 297 294 293 294 294 299 301 302 304 307 305 302 294 290 288 287 283 284 285 286 285 285 281 281 282 278 277 280 284 281 279 282 281 278 277 277
329 303 275 284 286 299 300 296 293 293 294 294 296 299 300 304 307 308 304 298 296 291 289 287 286 287 290 289 287 282 281 283 282 283 283 282 279 278 280 280 279 278 278
308 303 295 291 288 293 302 304 301 305 302 300 301 301 305 308 307 307 303 297 295 293 290 291 290 290 291 293 291 288 285 285 286 285 283 281 277 276 276 279 279 279 279
316 303 302 304 301 299 304 307 308 309 307 305 304 304 304 307 309 305 304 298 293 292 291 291 290 290 292 290 290 289 288 287 288 286 284 281 281 279 278 278 279 277 278
318 307 299 296 304 299 308 308 308 312 313 312 307 304 302 304 307 304 303 300 295 291 291 292 290 288 291 291 289 289 289 288 287 287 286 284 282 279 278 278 277 276 279
321 315 311 307 304 304 311 313 313 315 315 312 310 307 307 307 305 303 304 302 298 294 292 292 292 290 290 291 290 290 288 288 287 286 285 284 283 280 280 278 277 274 276
320 313 308 309 311 316 325 320 311 308 307 307 306 307 306 304 304 304 303 302 299 296 294 293 292 292 290 291 291 291 290 288 285 284 284 283 282 280 278 278 276 273 274
310 309 302 304 306 308 312 315 313 307 306 308 306 306 305 302 302 305 304 301 299 296 294 294 293 291 290 290 291 290 290 287 285 283 282 282 281 279 278 277 275 273 275
302 306 308 304 301 301 304 307 308 306 305 306 305 306 305 301 300 301 301 301 299 298 296 294 294 292 290 290 291 291 290 288 285 282 281 281 280 279 278 278 277 275 275
300 302 306 305 302 301 302 304 305 303 304 304 304 305 304 301 299 300 299 299 298 297 296 295 295 294 294 293 293 291 289 288 287 285 283 281 279 277 276 275 276 275 275
301 299 300 303 303 303 302 303 303 302 302 303 303 302 302 302 301 300 298 296 295 295 295 294 293 292 292 292 292 292 290 289 288 286 285 284 281 278 276 274 276 275 275
301 298 297 297 299 302 302 301 301 300 300 303 303 301 300 300 300 299 298 296 293 293 294 293 292 292 291 291 291 290 290 289 288 287 287 286 285 282 279 276 275 273 273
300 297 298 299 298 298 300 301 303 303 302 302 302 302 300 302 301 299 298 295 295 294 291 291 290 290 292 293 294 292 290 290 288 288 287 285 285 284 280 278 276 272 272
301 298 299 299 297 296 295 298 301 304 303 304 303 302 301 302 304 302 299 298 297 296 293 293 291 290 292 291 291 292 290 289 289 288 287 285 284 283 280 279 278 274 273
301 300 299 302 300 298 297 297 297 300 301 301 301 302 303 302 301 301 300 299 299 298 297 294 290 289 290 290 289 288 288 287 288 287 287 286 284 282 280 279 276 274 274
300 299 299 300 299 299 297 296 297 298 301 301 299 299 300 300 299 298 299 299 299 298 297 296 293 291 290 290 290 289 287 287 287 286 286 286 284 282 280 277 275 274 275
299 299 299 298 297 298 298 297 297 297 299 299 299 300 301 300 298 298 299 298 298 298 297 296 295 294 292 291 290 290 289 288 287 286 286 286 285 282 280 278 275 274 274
297 298 297 298 297 296 296 296 297 297 298 298 299 300 300 300 298 297 298 298 299 299 297 296 294 293 291 290 290 291 290 289 288 287 287 287 287 286 284 281 277 274 274
297 297 296 297 297 296 294 295 295 296 296 297 298 299 300 300 300 299 299 298 298 298 298 296 294 293 291 289 288 288 288 287 287 287 287 287 287 286 285 282 279 276 274
295 296 296 297 299 299 296 294 294 295 295 296 297 298 298 299 300 300 298 299 298 297 297 297 295 293 290 289 286 286 286 286 287 287 288 287 285 284 284 282 279 276 274
292 293 294 295 296 298 298 297 295 297 298 297 297 297 297 298 298 299 298 298 298 298 297 296 295 295 292 290 289 288 287 286 286 287 288 287 285 284 284 283 280 277 275
291 291 291 293 295 296 297 298 298 298 299 298 298 297 296 297 297 297 297 297 297 297 298 296 294 293 292 290 290 289 288 288 286 286 287 287 285 284 283 282 281 279 277
290 291 292 293 293 294 295 296 297 298 299 299 299 299 299 298 297 298 297 297 297 297 297 296 295 293 291 290 289 289 289 288 286 286 286 286 284 282 282 281 280 278 276
290 291 292 293 292 293 293 294 296 298 299 299 299 299 298 297 297 297 297 297 298 297 296 296 294 293 292 291 290 290 290 288 286 286 286 286 286 284 280 278 278 277 275
Height
5899 5899 5899 5898 5897 5896 5896 5896 5895 5894 5893 5893 5892 5892 5891 5890 5888 5887 5887 5886 5885 5884 5884 5883 5882 5881 5880 5880 5879 5878 5877 5877 5876 5876 5875 5875 5874 5874 5873 5873 5872 5872 5872
5899 5898 5898 5897 5896 5896 5895 5895 5894 5893 5892 5892 5891 5891 5890 5888 5887 5886 5885 5884 5883 5883 5882 5881 5880 5879 5878 5877 5877 5876 5875 5874 5874 5873 5872 5872 5872 5871 5870 5870 5870 5869 5869
5897 5897 5896 5896 5896 5895 5894 5894 5893 5892 5891 5891 5890 5889 5888 5887 5886 5885 5883 5882 5881 5881 5880 5879 5878 5877 5876 5875 5874 5873 5872 5871 5871 5870 5870 5869 5868 5868 5867 5867 5867 5866 5866
5896 5896 5895 5895 5894 5894 5893 5893 5892 5891 5890 5890 5888 5887 5886 5885 5884 5883 5881 5880 5879 5878 5878 5877 5876 5875 5874 5872 5871 5870 5869 5869 5868 5868 5867 5866 5865 5864 5864 5863 5863 5863 5862
5895 5895 5894 5894 5893 5893 5892 5891 5891 5890 5889 5888 5887 5886 5885 5883 5882 5881 5880 5878 5877 5876 5875 5874 5873 5872 5871 5870 5869 5867 5867 5866 5865 5864 5863 5862 5861 5861 5860 5860 5859 5859 5859
5894 5894 5893 5892 5892 5892 5891 5890 5889 5888 5887 5886 5885 5884 5883 5881 5880 5879 5877 5876 5875 5874 5873 5872 5871 5870 5868 5867 5866 5865 5864 5863 5862 5861 5860 5859 5858 5857 5856 5855 5855 5855 5855
5893 5893 5892 5891 5891 5890 5890 5889 5888 5886 5885 5884 5883 5882 5881 5879 5878 5876 5875 5873 5872 5871 5870 5868 5867 5866 5865 5864 5863 5861 5860 5859 5858 5857 5856 5855 5854 5853 5852 5852 5851 5851 5850
5892 5892 5891 5890 5889 5889 5888 5887 5886 5884 5883 5882 5881 5880 5878 5877 5875 5873 5872 5870 5869 5868 5867 5865 5864 5863 5861 5860 5859 5857 5856 5854 5853 5852 5851 5850 5849 5849 5848 5847 5847 5846 5846
5891 5890 5890 5889 5888 5887 5886 5885 5884 5882 5881 5880 5878 5877 5876 5874 5872 5871 5869 5867 5866 5864 5863 5862 5860 5859 5857 5855 5854 5853 5851 5850 5848 5847 5846 5845 5845 5844 5843 5843 5842 5842 5841
5890 5889 5888 5887 5887 5886 5884 5883 5882 5880 5879 5877 5876 5874 5873 5871 5869 5867 5866 5864 5862 5861 5859 5858 5856 5854 5852 5851 5849 5848 5846 5845 5843 5842 5841 5840 5839 5838 5838 5837 5837 5836 5836
5888 5887 5886 5886 5885 5883 5882 5881 5879 5878 5876 5874 5873 5871 5869 5867 5865 5864 5862 5860 5858 5856 5855 5853 5851 5849 5848 5846 5844 5843 5841 5840 5838 5837 5835 5834 5834 5833 5832 5831 5831 5831 5830
5886 5885 5884 5883 5882 5881 5879 5878 5876 5875 5873 5871 5869 5867 5866 5864 5861 5859 5857 5856 5854 5852 5850 5848 5846 5844 5843 5841 5839 5838 5836 5834 5833 5831 5830 5828 5827 5827 5826 5825 5825 5825 5824
5884 5883 5882 5880 5879 5878 5876 5875 5873 5871 5870 5868 5865 5863 5861 5859 5857 5855 5853 5851 5849 5847 5845 5843 5841 5839 5837 5835 5834 5832 5830 5828 5827 5825 5824 5823 5821 5820 5819 5819 5818 5818 5818
5882 5880 5879 5878 5876 5874 5873 5871 5869 5867 5866 5863 5861 5859 5857 5855 5852 5850 5848 5846 5844 5842 5840 5838 5835 5833 5831 5829 5827 5826 5824 5822 5821 5819 5818 5816 5815 5814 5813 5812 5812 5811 5811
5879 5877 5876 5874 5872 5871 5869 5867 5865 5863 5861 5859 5857 5854 5852 5849 5847 5845 5842 5840 5839 5837 5835 5832 5829 5827 5825 5823 5821 5819 5817 5815 5814 5812 5811 5809 5808 5807 5806 5805 5805 5804 5804
5876 5874 5872 5870 5868 5867 5865 5863 5861 5859 5857 5854 5851 5849 5847 5844 5842 5839 5837 5835 5833 5830 5828 5825 5823 5821 5819 5817 5814 5813 5811 5808 5806 5805 5803 5802 5801 5800 5799 5798 5798 5797 5797
5872 5870 5868 5866 5864 5862 5860 5858 5856 5854 5852 5849 5847 5844 5841 5839 5836 5833 5831 5829 5827 5824 5822 5820 5816 5814 5812 5810 5808 5806 5804 5802 5800 5798 5796 5795 5794 5793 5792 5791 5791 5790 5790
5868 5865 5863 5861 5859 5857 5855 5853 5851 5849 5846 5844 5841 5839 5836 5833 5830 5827 5824 5822 5820 5818 5816 5813 5810 5808 5805 5803 5801 5799 5797 5795 5792 5791 5789 5788 5787 5785 5784 5783 5783 5782 5782
5862 5860 5858 5856 5854 5852 5849 5847 5845 5843 5840 5838 5835 5832 5829 5826 5823 5820 5818 5816 5813 5811 5808 5806 5803 5801 5798 5796 5794 5792 5790 5788 5786 5784 5782 5781 5779 5777 5776 5775 5775 5774 5774
5857 5855 5852 5850 5848 5846 5843 5841 5839 5836 5834 5831 5828 5825 5822 5819 5816 5814 5811 5808 5806 5804 5801 5798 5796 5793 5791 5789 5787 5785 5783 5781 5779 5776 5775 5773 5771 5770 5768 5767 5767 5766 5766
5851 5849 5846 5844 5841 5839 5836 5834 5832 5829 5827 5824 5821 5818 5815 5812 5809 5807 5804 5801 5799 5796 5793 5791 5788 5786 5783 5781 5779 5777 5775 5773 5771 5769 5767 5765 5763 5762 5760 5759 5758 5758 5757
5844 5842 5839 5837 5834 5832 5829 5827 5824 5822 5819 5816 5814 5811 5808 5805 5802 5800 5797 5794 5791 5788 5786 5783 5780 5777 5775 5773 5771 5768 5767 5765 5763 5761 5759 5757 5755 5753 5752 5751 5750 5750 5749
5837 5835 5832 5830 5827 5825 5822 5819 5817 5814 5811 5808 5806 5803 5800 5797 5794 5792 5789 5786 5783 5780 5777 5775 5772 5769 5767 5765 5763 5760 5758 5756 5754 5753 5750 5748 5747 5745 5744 5742 5742 5741 5740
5829 5827 5825 5822 5819 5817 5814 5811 5808 5805 5802 5799 5797 5794 5791 5789 5786 5783 5780 5777 5774 5772 5769 5766 5764 5761 5758 5756 5753 5751 5749 5747 5745 5743 5742 5740 5738 5737 5735 5734 5733 5732 5732
5821 5819 5816 5814 5811 5808 5806 5803 5800 5797 5794 5791 5788 5785 5783 5780 5777 5774 5772 5769 5766 5763 5760 5757 5754 5752 5749 5746 5744 5742 5740 5738 5736 5734 5732 5731 5729 5728 5727 5726 5724 5723 5723
5813 5810 5808 5805 5802 5800 5797 5795 5792 5789 5786 5782 5779 5777 5774 5771 5768 5765 5762 5760 5757 5754 5751 5748 5745 5743 5740 5737 5735 5732 5730 5729 5727 5725 5723 5722 5720 5719 5718 5717 5716 5715 5714